sat.trackr.live / text

‹ back to catalog

STARLINK-11559 [DTC]

NORAD 62831 · 2025-019C

PAYLOAD ACTIVE UNKNOWN

§ Identity

Operator
Country
US
Launch date
2025-01-27
Launch site
AFETR
Launch vehicle
Mass (kg)
RCS (m²)

Purposes: comms

External: N2YO · Heavens-Above · Gunter

§ Orbital elements

Epoch: 2026-05-24T12:45:34.981632Z

Period
91.67 min
Inclination
43.0014°
Eccentricity
0.0002273
Mean motion
15.70896438 rev/d
Perigee alt
354.8 km
Apogee alt
357.9 km
Semi-major
6,734.5 km
B*
1.4827e-3
RAAN
209.2879°
Arg perigee
274.2719°
Mean anomaly
85.7889°
Rev number
7,580

§ Raw data

STARLINK-11559 [DTC]1 62831U 25019C   26144.53165488  .00194793  00000+0  14827-2 0  99902 62831  43.0014 209.2879 0002273 274.2719  85.7889 15.70896438 75803

JSON: /api/v1/satellites/62831 · /tle

For live sub-satellite position, see the globe view (requires WebGL).

§ Visibility from observer

Set your observer location to see the next 7 days of passes ≥ 10°. The values pass through the URL so the page stays shareable.

No JS? Fill the form by hand. The geolocation button needs JavaScript.